,

(GMT )
Resia Pass

Weather History for LIVE - October, 2012

Change the Weather History Date:

Friday, October 26, 2012

  Actual Average Record
Temperature  
Mean Temperature 42 °F -  
Max Temperature 44 °F 49 °F 66 °F (2008)
Min Temperature 39 °F 34 °F 15 °F (2003)
Degree Days  
Heating Degree Days 24    
Moisture  
Dew Point 37 °F    
Average Humidity 86    
Maximum Humidity 93    
Minimum Humidity 76    
Precipitation  
Precipitation 0.00 in - - ()
Sea Level Pressure  
Sea Level Pressure 29.76 in    
Wind  
Wind Speed 4 mph ()    
Max Wind Speed 8 mph    
Max Gust Speed -    
Visibility 4.7 miles    
Events      
Averages and records for this station are not official NWS values.
T = Trace of Precipitation, MM = Missing Value Source: Averaged Metar Reports

Daily Weather History Graph

Daily Weather History Graph

Search for Another Location

Airport or City:

Trip Planner

Search our weather history database for the weather conditions in past years. The results will help you decide how hot, cold, wet, or windy it might be!

Date:

Astronomy

Oct. 26, 2012 Rise Set
Actual Time 7:51 AM CEST 6:11 PM CEST
Civil Twilight 7:20 AM CEST 6:42 PM CEST
Nautical Twilight 6:45 AM CEST 7:18 PM CEST
Astronomical Twilight 6:09 AM CEST 7:53 PM CEST
Moon 4:27 PM CEST (10/26) 4:21 AM CEST (10/26)
Length of Visible Light 11h 21m
Length of Day
10h 19m
Waxing Gibbous, 89% of the Moon is Illuminated
Oct 26
Waxing Gibbous
Oct 29
Full
Nov 7
Last Quarter
Nov 13
New
Nov 20
First Quarter

Hourly Weather History & Observations

Time (CEST) Temp. Windchill Dew Point Humidity Pressure Visibility Wind Dir Wind Speed Gust Speed Precip Events Conditions
12:55 AM 42.8 °F 41.1 °F 39.2 °F 87% 29.92 in - North 3.5 mph - N/A   Clear
1:55 AM 41.0 °F - 37.4 °F 87% 29.92 in - Variable 2.3 mph - N/A   Clear
2:55 AM 41.0 °F 39.0 °F 37.4 °F 87% 29.92 in - NNE 3.5 mph - N/A   Clear
3:55 AM 39.2 °F - 35.6 °F 87% 29.92 in - Calm Calm - N/A   Clear
5:55 AM 39.2 °F - 35.6 °F 87% 29.89 in - Calm Calm - N/A   Clear
6:55 AM 39.2 °F - 35.6 °F 87% 29.86 in 6.2 mi Variable 2.3 mph - N/A   Partly Cloudy
7:55 AM 39.2 °F - 37.4 °F 93% 29.80 in 6.2 mi Variable 2.3 mph - N/A   Scattered Clouds
8:55 AM 41.0 °F - 37.4 °F 87% 29.80 in 6.2 mi Variable 2.3 mph - N/A   Scattered Clouds
9:55 AM 41.0 °F - 39.2 °F 93% 29.80 in 6.2 mi Variable 2.3 mph - N/A   Mostly Cloudy
10:55 AM 44.6 °F 40.7 °F 41.0 °F 87% 29.77 in 6.2 mi SSE 6.9 mph - N/A   Mostly Cloudy
11:55 AM 44.6 °F 40.2 °F 41.0 °F 87% 29.77 in 6.2 mi SSE 8.1 mph - N/A   Mostly Cloudy
12:55 PM 42.8 °F 38.6 °F 41.0 °F 93% 29.77 in 5.0 mi South 6.9 mph - N/A   Mostly Cloudy
1:55 PM 42.8 °F 38.6 °F 41.0 °F 93% 29.77 in 5.0 mi SSE 6.9 mph - N/A   Mostly Cloudy
2:55 PM 42.8 °F 38.6 °F 39.2 °F 87% 29.74 in 5.0 mi SSE 6.9 mph - N/A   Mostly Cloudy
3:55 PM 42.8 °F 39.3 °F 39.2 °F 87% 29.74 in 5.0 mi SE 5.8 mph - N/A   Mostly Cloudy
4:55 PM 42.8 °F 39.3 °F 37.4 °F 81% 29.71 in 4.3 mi SE 5.8 mph - N/A   Mostly Cloudy
5:55 PM 41.0 °F 37.1 °F 37.4 °F 87% 29.71 in 4.3 mi SSE 5.8 mph - N/A   Overcast
6:55 PM 41.0 °F 38.0 °F 37.4 °F 87% 29.68 in 3.7 mi South 4.6 mph - N/A   Overcast
7:55 PM 41.0 °F 37.1 °F 35.6 °F 81% 29.65 in 2.5 mi SSE 5.8 mph - N/A   Overcast
8:55 PM 41.0 °F 37.1 °F 33.8 °F 76% 29.65 in 4.3 mi SE 5.8 mph - N/A   Overcast
9:55 PM 41.0 °F 36.4 °F 33.8 °F 76% 29.62 in 3.7 mi SE 6.9 mph - N/A   Overcast
10:55 PM 41.0 °F 36.4 °F 33.8 °F 76% 29.59 in 2.5 mi SE 6.9 mph - N/A   Overcast
11:55 PM 41.0 °F 36.4 °F 33.8 °F 76% 29.56 in 1.9 mi SE 6.9 mph - N/A   Overcast